Regional Weather Roundup
Issued by NWS

Home | Current Version | Previous Version | Text Only | Print | Product List | Glossary Off
Versions: 1 2 3 4 5 6 7 8 9 10 11 12 13 14 15 16 17 18 19 20 21 22 23 24 25 26 27 28 29 30 31 32 33 34 35 36 37 38 39 40 41 42 43 44 45 46 47 48 49 50

000
ASUS45 KCYS 061110
RWRWY

WYOMING REGIONAL WEATHER ROUNDUP
NATIONAL WEATHER SERVICE CHEYENNE WY
500 AM MDT WED MAY 06 2015

NOTE:  "FAIR" INDICATES FEW OR NO CLOUDS BELOW 12,000 FEET
WITH NO SIGNIFICANT WEATHER AND/OR OBSTRUCTIONS TO VISIBILITY.

WYZ001-061200-
YELLOWSTONE NATIONAL PARK

CITY           SKY/WX    TMP DP  RH WIND       PRES   REMARKS
LK YELLOWSTONE   N/A     35  32  88 CALM      29.89F
W YELLOWSTONE  NOT AVBL

$$
WYZ002>013-054>058-071-098>099-061200-
NORTHERN WYOMING

CITY           SKY/WX    TMP DP  RH WIND       PRES   REMARKS
JACKSON        FAIR      36  34  93 NE3       29.84S
CODY           CLOUDY    48  45  87 N9        29.78S
GREYBULL       LGT RAIN  53  50  89 NW9       29.71S
WORLAND        CLOUDY    52  49  89 NW7       29.73R
SHERIDAN       CLOUDY    54  46  74 NW20G25   29.73R
BUFFALO        FAIR      48  42  80 N5        29.73R
GILLETTE       CLOUDY    52  48  86 S13       29.70F
HULETT         CLOUDY    54  46  76 CALM      29.73F
NEWCASTLE      DRIZZLE   50  50 100 S3        29.73F

$$
WYZ014>020-022>026-101>103-061200-
CENTRAL WYOMING

CITY           SKY/WX    TMP DP  RH WIND       PRES   REMARKS
BIG PINEY      FAIR      43  35  73 N12       29.82S
PINEDALE       FAIR      39  37  93 W9        29.82S WCI  33
DUBOIS         FAIR      43  34  70 NW13      29.81S
LANDER         LGT RAIN  49  46  90 SE3       29.74F
RIVERTON       LGT RAIN  51  46  83 W6        29.76R
CASPER         MOCLDY    46  44  93 CALM      29.72S
DOUGLAS        CLOUDY    50  49  96 SE10      29.71F

$$
WYZ021-027>030-104>119-061200-
SOUTHERN WYOMING

CITY           SKY/WX    TMP DP  RH WIND       PRES   REMARKS
EVANSTON       CLOUDY    43  41  93 SW9       29.87S FOG
KEMMERER       CLOUDY    43  41  93 N6        29.85S
FORT BRIDGER   CLOUDY    46  45  93 SW12      29.88S
ROCK SPRINGS   CLOUDY    46  42  86 W12       29.81R
DIXON          CLOUDY    48  44  86 CALM      29.83R
RAWLINS        CLOUDY    43  40  89 N5        29.78S
SARATOGA       CLOUDY    43  41  93 CALM      29.80S
LARAMIE        CLOUDY    41  39  93 N5        29.75S
CHEYENNE       LGT RAIN  47  45  93 N7        29.71F
TORRINGTON     LGT RAIN  51  50  96 NE3       29.68F
PINE BLUFFS    CLOUDY    48  48 100 N6        29.69S FOG

$$



USA.gov is the U.S. government's official web portal to all federal, state and local government web resources and services.